Humidity-temperature Sensor

Selected Measurement Type: Air Temperature

 
Air Temperature [°C]     6 entries per hour
Showing data from 6/17/2022 (00:00:00 Z) to 6/16/2022 (00:01:00 Z)
Previous Next [ Day | 3-Days | 7-Days ]
First Last
Prev [ Day | 3-Days | 7-Days ] Next
First Last

Start Time:     :
End Time:     :     
Time (in GMT) :00 :50 :40 :30 :20 :10
Previous Next [ Day | 3-Days | 7-Days ]
First Last
Prev [ Day | 3-Days | 7-Days ] Next
First Last


123 => good data
MM => data is determined as missing
-- => data not received/configured
Back to Top Back to Top
6/17/2022 00:00 to 23:10 25.56 25.50 25.54 25.59 25.50 25.46
6/16/2022 23:00 to 22:10 25.61 25.40 25.47 25.35 25.43 25.47
6/16/2022 22:00 to 21:10 25.49 25.40 25.52 25.33 25.43 25.54
6/16/2022 21:00 to 20:10 25.42 25.21 25.42 25.35 25.33 25.56
6/16/2022 20:00 to 19:10 25.46 25.40 25.36 25.46 25.48 25.42
6/16/2022 19:00 to 18:10 25.44 25.39 25.44 25.46 25.35 25.42
6/16/2022 18:00 to 17:10 25.40 25.50 25.53 25.39 25.46 25.40
6/16/2022 17:00 to 16:10 25.50 25.55 25.59 25.55 25.56 25.75
6/16/2022 16:00 to 15:10 25.59 25.79 25.48 25.28 25.33 25.35
6/16/2022 15:00 to 14:10 25.34 25.13 25.17 24.94 25.16 25.08
6/16/2022 14:00 to 13:10 25.00 25.08 25.11 25.04 25.14 25.10
6/16/2022 13:00 to 12:10 25.13 25.09 25.04 25.16 25.16 25.01
6/16/2022 12:00 to 11:10 25.14 25.17 24.94 25.09 25.02 24.92
6/16/2022 11:00 to 10:10 25.24 25.02 25.04 25.16 25.22 25.05
6/16/2022 10:00 to 9:10 25.01 25.09 25.07 25.02 25.20 25.05
6/16/2022 09:00 to 8:10 25.31 25.26 25.15 25.06 25.30 25.18
6/16/2022 08:00 to 7:10 25.14 25.12 25.12 25.24 25.21 25.14
6/16/2022 07:00 to 6:10 25.22 25.17 25.15 25.18 25.25 25.29
6/16/2022 06:00 to 5:10 25.15 25.17 25.22 25.12 25.24 25.22
6/16/2022 05:00 to 4:10 25.14 25.23 25.05 25.19 25.17 25.19
6/16/2022 04:00 to 3:10 25.19 25.18 25.27 25.34 25.22 25.09
6/16/2022 03:00 to 2:10 25.21 25.12 25.15 25.29 25.27 25.35
6/16/2022 02:00 to 1:10 25.51 25.52 25.40 25.47 25.43 25.46
6/16/2022 01:00 to 0:10 25.38 25.36 25.38 25.36 25.54 25.45